AirNav   Air Wisconsin pilot careers
 
 319 users online  

9R5 Hunt Airport
Portland, Texas, USA

GOING TO PORTLAND?


FAA INFORMATION EFFECTIVE 08 NOVEMBER 2018

Location

FAA Identifier: 9R5
Lat/Long: 27-53-12.0017N / 097-20-58.6898W
27-53.200028N / 097-20.978163W
27.8866671 / -97.3496361
(estimated)
Elevation: 40 ft. / 12.2 m (surveyed)
Variation: 07E (1985)
From city: 2 miles NW of PORTLAND, TX
Time zone: UTC -6 (UTC -5 during Daylight Saving Time)
Zip code: 78374

Airport Operations

Airport use: Open to the public
Activation date: 12/1944
Control tower: no
ARTCC: HOUSTON CENTER
FSS: SAN ANGELO FLIGHT SERVICE STATION
NOTAMs facility: SJT (NOTAM-D service available)
Attendance: UNATNDD
Wind indicator: yes
Segmented circle: no

Airport Communications

CTAF: 122.9
WX AWOS-3 at TFP (7 nm E): 118.775 (361-758-8961)
WX ASOS at CRP (11 nm SW): PHONE 361-289-0191
WX AWOS-1 at T69 (14 nm NW): 118.25 (361-364-1844)
WX AWOS-3 at RAS (15 nm E): 118.425 (361-749-0537)
WX AWOS-3 at RBO (19 nm W): 118.175 (361-767-1982)

Nearby radio navigation aids

VOR radial/distance  VOR name  Freq  Var
CRPr092/5.2CORPUS CHRISTI VORTAC115.5009E
NGPr340/12.4TRUAX VORTAC114.0006E
ALIr070/(36.7)ALICE VOR114.5006E

 
NDB name  Hdg/Dist  Freq  Var  ID
MELLON RANCH192/24.837506EMNO -- -. ---

Airport Services

Bottled oxygen: NONE
Bulk oxygen: NONE

Runway Information

Runway 14L/32R

Dimensions: 2650 x 20 ft. / 808 x 6 m
Surface: asphalt, in poor condition
HAS SEVERE GRASS ENCROACHMENT, POT HOLES AND LOOSE GRAVEL ON RWY.
Weight bearing capacity: 
Single wheel: 9.0
Operational restrictions: LIMITED LINE OF SIGHT BTN THLDS; SOUTHERN 600 FT OF RY DROPS OFF APPROXLY 8 FT.
RUNWAY 14L  RUNWAY 32R
Latitude: 27-53.428500N27-53.050833N
Longitude: 097-21.044000W097-20.795833W
Elevation: 38.0 ft.22.0 ft.
Gradient: 0.6% UP0.1%
Traffic pattern: rightleft
Obstructions: 57 ft. pline, 2982 ft. from runway, 48:1 slope to clear
+19 FT ROAD FM THLD ACROSS APCH.
6 ft. brush, 200 ft. from runway

Runway 14R/32L

Dimensions: 1400 x 60 ft. / 427 x 18 m
Surface: turf/gravel, in poor condition
HEAVY RUTTING ALONG ENTIRE RUNWAY LENGTH
Operational restrictions: RY CLSD INDEFLY.
RUNWAY 14R  RUNWAY 32L
Latitude: 27-53.218167N27-53.031833N
Longitude: 097-21.165500W097-21.011333W
Elevation: 32.0 ft.35.0 ft.
Gradient: 0.1%0.1%
Traffic pattern: rightleft

Airport Ownership and Management from official FAA records

Ownership: Privately-owned
Owner: JANIE MITCHELL
BOX 60
PORTLAND, TX 78374
Phone 361-643-3950
Manager: JANIE MITCHELL
BOX 60
PORTLAND, TX 78374
Phone 361-643-3950

Airport Operational Statistics

Aircraft based on the field: 8
Single engine airplanes: 5
Ultralights: 3
    
Aircraft operations: avg 40/week *
67% local general aviation
33% transient general aviation
* for 12-month period ending 15 March 2017

Additional Remarks

NOISE ABATEMENT PROCEDURES IN EFFECT - CALL ARPT MGR AT 361-643-3950.
OWNER RESIDES ON ARPT.
RY 32R GROUND DROPS OFF APPROX 10 FT AT THLD.
FOR CD CTC CRP APCH AT 361-299-4230.

Instrument Procedures

There are no published instrument procedures at 9R5.

Some nearby airports with instrument procedures:

KTFP - McCampbell-Porter Airport (7 nm E)
KCRP - Corpus Christi International Airport (11 nm SW)
KNGP - Corpus Christi Naval Air Station/Truax Field (12 nm S)
T69 - Alfred C 'Bubba' Thomas Airport (14 nm NW)
KRAS - Mustang Beach Airport (15 nm E)
KRBO - Nueces County Airport (19 nm W)
 
Loc | Ops | Rwys | IFR | FBO | Links
Com | Nav | Svcs | Stats | Notes


 
Area around 9R5 (Hunt Airport)
 
Road maps at: MapQuest Bing Google
 
Aerial photo
WARNING: Photo may not be current or correct
Aerial photo of 9R5 (Hunt Airport)
Do you have a better or more recent aerial photo of Hunt Airport that you would like to share? If so, please send us your photo.

 
Sectional chart

 
Airport distance calculator
Flying to Hunt Airport? Find the distance to fly.

From to 9R5

Sunrise and sunset
Times for 18-Nov-2018
 Local
(UTC-6)
 Zulu
(UTC)
Morning civil twilight06:2912:29
Sunrise06:5412:54
Sunset17:3523:35
Evening civil twilight18:0024:00

Current date and time
Zulu (UTC)  18-Nov-2018 09:00:41
Local (UTC-6)  18-Nov-2018 03:00:41
 
METAR
KTFP 
7nm E 
180835Z AUTO 14009KT 10SM SCT023 BKN036 OVC042 22/19 A3005 RMK AO2 T02150185 PNO
KCRP 
11nm SW 
180851Z 13006KT 10SM SCT018 BKN030 OVC045 20/18 A3005 RMK AO2 SLP173 T02000183 55002
KNGP 
13nm S 
180826Z AUTO 14007KT 10SM FEW025 SCT030 BKN041 22/19 A3004 RMK AO2 T02170194
KRAS 
15nm E 
180835Z AUTO 13011KT 10SM SCT035 BKN041 OVC047 21/19 A3007 RMK AO2 T02130189
KRBO 
19nm W 
180835Z AUTO 00000KT 10SM BKN030 OVC037 19/18 A3005 RMK AO2 T01910181
KRKP 
20nm NE 
180853Z AUTO 14005KT 9SM OVC033 19/18 A3006 RMK AO2 RAB42E52 SLP180 P0000 60000 T01940178 56004 $
TAF
KCRP 
11nm SW 
180523Z 1806/1906 12008KT P6SM VCSH SCT018 OVC035 TEMPO 1806/1809 BKN018 FM180900 11008KT 6SM SHRA BR SCT015 OVC020 FM181600 10012KT 5SM SHRA BR BKN010 OVC030 FM182100 03015G22KT 5SM SHRA BKN015
KNGP 
13nm S 
1723/1823 12012KT 9999 VCSH FEW010 SCT020 BKN035 OVC050 QNH3000INS BECMG 1807/1809 12010KT 9999 VCTS SCT010 BKN030CB OVC045 QNH3002INS TEMPO 1812/1818 VRB15G25KT 6000 -TSRA BECMG 1819/1821 12012KT 8000 SHRA VCTS SCT008 BKN035CB OVC055 QNH3001INS AUTOMATED SENSOR METWATCH 1723 TIL 1912 T21/1808Z T24/1820Z COR 0047 FN00178
NOTAMs
Click for the latest NOTAMs
NOTAMs are issued by the DoD/FAA and will open in a separate window not controlled by AirNav.

 

 
 

Would you like to see your business listed on this page?

 If your business provides an interesting product or service to pilots, flight crews, aircraft, or users of the Hunt Airport, you should consider listing it here.  To start the listing process, click on the button below
 
Add a business
 

Other Pages about Hunt Airport

Update a link
 
Copyright © AirNav, LLC. All rights reserved. Privacy Policy  Contact